Durant, OK

9:15 PM CDT on June 28, 2017 (GMT -0500)
Eaker

Weather History for KDUA - February, 2013

Change the Weather History Date:

Wednesday, February 27, 2013

  Actual Average (KMLC) Record (KMLC)
Temperature  
Mean Temperature 44 °F -  
Max Temperature 55 °F 59 °F 77 °F (1963)
Min Temperature 33 °F 36 °F 12 °F (2002)
Degree Days  
Heating Degree Days 21    
Moisture  
Dew Point 29 °F    
Average Humidity 63    
Maximum Humidity 93    
Minimum Humidity 29    
Precipitation  
Precipitation 0.00 in - - ()
Sea Level Pressure  
Sea Level Pressure 30.08 in    
Wind  
Wind Speed 10 mph (NW)    
Max Wind Speed 20 mph    
Max Gust Speed 25 mph    
Visibility 10 miles    
Events      
Averages and records for this station are not official NWS values.
T = Trace of Precipitation, MM = Missing Value Source: NWS Daily Summary

Daily Weather History Graph

Daily Weather History Graph

Search for Another Location

Airport or City:

Trip Planner

Search our weather history database for the weather conditions in past years. The results will help you decide how hot, cold, wet, or windy it might be!

Date:

Astronomy

Feb. 27, 2013 Rise Set
Actual Time 6:56 AM CST 6:20 PM CST
Civil Twilight 6:31 AM CST 6:45 PM CST
Nautical Twilight 6:02 AM CST 7:14 PM CST
Astronomical Twilight 5:33 AM CST 7:43 PM CST
Moon 8:33 PM CST (2/27) 7:40 AM CST (2/27)
Length of Visible Light 12h 14m
Length of Day
11h 24m
Waning Gibbous, 96% of the Moon is Illuminated
Feb 27
Waning Gibbous
Mar 4
Last Quarter
Mar 11
New
Mar 19
First Quarter
Mar 27
Full

Hourly Weather History & Observations

Time (CST) Temp. Windchill Dew Point Humidity Pressure Visibility Wind Dir Wind Speed Gust Speed Precip Events Conditions
12:15 AM 37.4 °F 30.8 °F 32.0 °F 81% 29.91 in 10.0 mi NNE 9.2 mph - N/A   Clear
12:35 AM 37.4 °F 30.8 °F 32.0 °F 81% 29.92 in 10.0 mi NNE 9.2 mph - N/A   Clear
12:55 AM 35.6 °F 29.2 °F 32.0 °F 87% 29.92 in 10.0 mi NNE 8.1 mph - N/A   Clear
1:35 AM 35.6 °F 30.7 °F 32.0 °F 87% 29.94 in 10.0 mi NNE 5.8 mph - N/A   Clear
1:55 AM 35.6 °F 29.2 °F 32.0 °F 87% 29.93 in 10.0 mi NNE 8.1 mph - N/A   Clear
2:15 AM 35.6 °F 28.0 °F 32.0 °F 87% 29.92 in 10.0 mi NNE 10.4 mph - N/A   Clear
2:35 AM 35.6 °F 28.6 °F 32.0 °F 87% 29.91 in 10.0 mi NNE 9.2 mph - N/A   Clear
2:55 AM 35.6 °F 31.7 °F 32.0 °F 87% 29.97 in 10.0 mi WNW 4.6 mph - N/A   Clear
3:15 AM 35.6 °F 30.7 °F 32.0 °F 87% 29.97 in 10.0 mi NNW 5.8 mph - N/A   Clear
3:35 AM 33.8 °F 29.6 °F 32.0 °F 93% 29.97 in 10.0 mi NNW 4.6 mph - N/A   Scattered Clouds
3:55 AM 33.8 °F 26.4 °F 32.0 °F 93% 29.95 in 10.0 mi WNW 9.2 mph - N/A   Scattered Clouds
4:15 AM 33.8 °F 27.0 °F 32.0 °F 93% 29.95 in 10.0 mi North 8.1 mph - N/A   Clear
4:35 AM 33.8 °F 26.4 °F 32.0 °F 93% 29.95 in 10.0 mi West 9.2 mph - N/A   Scattered Clouds
4:55 AM 33.8 °F 27.7 °F 32.0 °F 93% 29.97 in 10.0 mi North 6.9 mph - N/A   Mostly Cloudy
5:15 AM 33.8 °F 27.0 °F 32.0 °F 93% 29.98 in 10.0 mi NNW 8.1 mph - N/A   Overcast
5:35 AM 35.6 °F 29.9 °F 32.0 °F 87% 30.00 in 10.0 mi NNW 6.9 mph - N/A   Overcast
5:55 AM 35.6 °F 29.9 °F 32.0 °F 87% 30.01 in 10.0 mi NNW 6.9 mph - N/A   Overcast
6:15 AM 35.6 °F 29.2 °F 32.0 °F 87% 30.02 in 10.0 mi NW 8.1 mph - N/A   Overcast
6:35 AM 35.6 °F 29.2 °F 32.0 °F 87% 30.04 in 10.0 mi WNW 8.1 mph - N/A   Overcast
6:55 AM 35.6 °F 31.7 °F 32.0 °F 87% 30.04 in 10.0 mi NW 4.6 mph - N/A   Overcast
7:15 AM 35.6 °F 32.8 °F 32.0 °F 87% 30.03 in 10.0 mi WNW 3.5 mph - N/A   Overcast
7:35 AM 35.6 °F 32.8 °F 32.0 °F 87% 30.04 in 10.0 mi WNW 3.5 mph - N/A   Overcast
7:55 AM 37.4 °F 33.8 °F 32.0 °F 81% 30.05 in 10.0 mi NW 4.6 mph - N/A   Overcast
8:15 AM 37.4 °F 32.1 °F 32.0 °F 81% 30.07 in 10.0 mi NW 6.9 mph - N/A   Overcast
8:35 AM 37.4 °F 30.8 °F 32.0 °F 81% 30.08 in 10.0 mi NW 9.2 mph - N/A   Mostly Cloudy
8:55 AM 39.2 °F 32.0 °F 32.0 °F 75% 30.09 in 10.0 mi NNW 11.5 mph - N/A   Scattered Clouds
9:15 AM 41.0 °F 33.9 °F 32.0 °F 70% 30.09 in 10.0 mi NNW 12.7 mph - N/A   Clear
9:35 AM 42.8 °F 36.6 °F 32.0 °F 66% 30.09 in 10.0 mi NNW 11.5 mph - N/A   Clear
9:55 AM 44.6 °F 38.8 °F 32.0 °F 61% 30.09 in 10.0 mi NNW 11.5 mph - N/A   Clear
10:15 AM 44.6 °F 38.4 °F 30.2 °F 57% 30.10 in 10.0 mi NNW 12.7 mph - N/A   Clear
10:35 AM 46.4 °F 41.9 °F 30.2 °F 53% 30.10 in 10.0 mi NNW 9.2 mph - N/A   Clear
10:55 AM 46.4 °F 41.1 °F 30.2 °F 53% 30.10 in 10.0 mi NW 11.5 mph - N/A   Clear
11:15 AM 50.0 °F - 28.4 °F 43% 30.11 in 10.0 mi NNW 13.8 mph - N/A   Clear
11:35 AM 50.0 °F - 28.4 °F 43% 30.11 in 10.0 mi WNW 13.8 mph - N/A   Clear
11:55 AM 50.0 °F - 28.4 °F 43% 30.11 in 10.0 mi NNW 12.7 mph 23.0 mph N/A   Clear
12:15 PM 50.0 °F - 28.4 °F 43% 30.11 in 10.0 mi NW 12.7 mph 19.6 mph N/A   Clear
12:55 PM 51.8 °F - 28.4 °F 41% 30.11 in 10.0 mi NW 16.1 mph 21.9 mph N/A   Clear
1:15 PM 51.8 °F - 28.4 °F 41% 30.10 in 10.0 mi WNW 12.7 mph 18.4 mph N/A   Clear
1:35 PM 51.8 °F - 28.4 °F 41% 30.10 in 10.0 mi NW 17.3 mph 23.0 mph N/A   Clear
1:55 PM 53.6 °F - 30.2 °F 41% 30.10 in 10.0 mi NW 17.3 mph 21.9 mph N/A   Clear
2:15 PM 53.6 °F - 30.2 °F 41% 30.09 in 10.0 mi WNW 13.8 mph 21.9 mph N/A   Clear
2:35 PM 53.6 °F - 28.4 °F 38% 30.09 in 10.0 mi NW 17.3 mph 24.2 mph N/A   Clear
2:55 PM 53.6 °F - 30.2 °F 41% 30.09 in 10.0 mi NW 15.0 mph - N/A   Clear
3:15 PM 53.6 °F - 26.6 °F 35% 30.09 in 10.0 mi WNW 13.8 mph 24.2 mph N/A   Clear
3:35 PM 53.6 °F - 24.8 °F 33% 30.09 in 10.0 mi NW 17.3 mph 20.7 mph N/A   Clear
3:55 PM 53.6 °F - 23.0 °F 30% 30.09 in 10.0 mi NW 17.3 mph 21.9 mph N/A   Clear
4:15 PM 55.4 °F - 23.0 °F 29% 30.09 in 10.0 mi NW 16.1 mph 25.3 mph N/A   Clear
4:35 PM 53.6 °F - 23.0 °F 30% 30.09 in 10.0 mi NW 15.0 mph 20.7 mph N/A   Clear
4:55 PM 53.6 °F - 23.0 °F 30% 30.10 in 10.0 mi NW 19.6 mph 25.3 mph N/A   Clear
5:15 PM 51.8 °F - 23.0 °F 33% 30.11 in 10.0 mi NW 16.1 mph 23.0 mph N/A   Clear
5:35 PM 50.0 °F - 23.0 °F 35% 30.11 in 10.0 mi NW 18.4 mph 24.2 mph N/A   Clear
5:55 PM 50.0 °F - 23.0 °F 35% 30.12 in 10.0 mi NW 12.7 mph 24.2 mph N/A   Clear
6:15 PM 48.2 °F - 23.0 °F 37% 30.12 in 10.0 mi NW 11.5 mph 20.7 mph N/A   Clear
6:35 PM 46.4 °F 40.1 °F 23.0 °F 40% 30.13 in 10.0 mi NW 15.0 mph 20.7 mph N/A   Clear
6:55 PM 44.6 °F 38.1 °F 24.8 °F 46% 30.14 in 10.0 mi NW 13.8 mph 17.3 mph N/A   Clear
7:15 PM 44.6 °F 38.4 °F 26.6 °F 49% 30.15 in 10.0 mi NW 12.7 mph 18.4 mph N/A   Clear
7:35 PM 44.6 °F 38.1 °F 26.6 °F 49% 30.16 in 10.0 mi NW 13.8 mph 18.4 mph N/A   Clear
7:55 PM 42.8 °F 37.0 °F 26.6 °F 53% 30.17 in 10.0 mi NW 10.4 mph 17.3 mph N/A   Clear
8:15 PM 42.8 °F 36.6 °F 26.6 °F 53% 30.18 in 10.0 mi NW 11.5 mph 18.4 mph N/A   Clear
8:35 PM 42.8 °F 35.4 °F 26.6 °F 53% 30.18 in 10.0 mi NW 15.0 mph 18.4 mph N/A   Clear
8:55 PM 41.0 °F 34.7 °F 26.6 °F 57% 30.19 in 10.0 mi NW 10.4 mph - N/A   Clear
9:15 PM 41.0 °F 33.9 °F 28.4 °F 61% 30.20 in 10.0 mi NW 12.7 mph - N/A   Clear
9:35 PM 39.2 °F 32.5 °F 28.4 °F 65% 30.20 in 10.0 mi NW 10.4 mph - N/A   Clear
9:55 PM 39.2 °F 31.6 °F 28.4 °F 65% 30.20 in 10.0 mi NNW 12.7 mph 18.4 mph N/A   Clear
10:15 PM 37.4 °F 30.3 °F 28.4 °F 70% 30.21 in 10.0 mi NNW 10.4 mph - N/A   Clear
10:35 PM 37.4 °F 29.3 °F 28.4 °F 70% 30.20 in 10.0 mi NNW 12.7 mph 17.3 mph N/A   Clear
10:55 PM 37.4 °F 29.3 °F 28.4 °F 70% 30.20 in 10.0 mi NNW 12.7 mph - N/A   Clear
11:15 PM 37.4 °F 29.8 °F 28.4 °F 70% 30.22 in 10.0 mi NW 11.5 mph - N/A   Clear
11:35 PM 37.4 °F 30.8 °F 28.4 °F 70% 30.21 in 10.0 mi NW 9.2 mph - N/A   Clear
11:55 PM 35.6 °F 29.2 °F 28.4 °F 75% 30.21 in 10.0 mi WNW 8.1 mph - N/A   Clear